Location: *
(45.4590°N, 16.3650°E)
Time: 00:26:35
(UTC+00:00)

SL-8 Rocket - Pass Details

Date: 17 January 2020
Orbit: 956 x 991 km, 82.9° (Epoch: 23 February)

Event Time Altitude Azimuth Distance (km) Brightness Sun altitude
Rises 17:52:09 0° 182° (S) 3,691 7.1 -22.8°
Reaches altitude 10° 17:54:40 10° 181° (S) 2,746 6.4 -23.2°
Maximum altitude 18:00:58 80° 96° (E) 1,009 3.9 -24.3°
Drops below altitude 10° 18:07:18 10° 10° (N) 2,752 6.2 -25.4°
Sets 18:09:49 0° 10° (N) 3,700 6.9 -25.9°
